CAPE
61 297 688 1037 640 721 699 365 284 734 1082 1009 957 1010 995 918 939 907 799 621 703 521 735 964 1116 1011 627 707 767 571 532 585 609 644 552 747 908 1341 1145 1125 818 753 883
137 323 429 1117 827 874 709 523 795 983 1202 1140 1001 1051 1046 1016 834 730 784 649 621 796 1022 1104 1146 1130 1010 913 854 657 548 651 779 998 951 738 803 1083 1128 846 962 823 901
200 311 543 868 1086 1052 1036 934 1120 1225 1159 1132 1110 1031 778 718 820 775 740 829 799 884 856 1011 1007 964 752 588 567 490 400 533 930 838 733 477 697 844 838 881 904 888 903
219 219 298 833 939 1169 1122 1142 1193 1193 1131 1254 1162 955 640 619 807 940 864 830 821 781 774 680 536 499 573 661 693 679 366 326 779 733 226 153 410 717 986 786 674 731 835
270 222 204 782 943 1192 1145 1212 1162 1188 1209 1289 1179 976 741 763 784 823 823 693 608 629 605 425 519 653 619 570 512 284 196 323 490 429 270 171 132 567 677 489 598 657 691
319 282 167 414 1022 1164 1193 1193 1226 1236 1075 965 907 814 700 678 698 669 623 490 460 621 470 589 666 184 113 93 73 35 46 90 165 146 155 124 184 196 756 431 641 579 1018
374 238 179 372 811 1224 1197 1213 1172 1214 1170 1013 965 836 758 689 653 644 692 647 559 710 468 280 238 270 183 103 93 83 110 355 730 557 277 97 156 179 754 866 681 645 929
407 240 105 338 967 1198 1210 1159 1019 851 725 658 557 924 1357 1281 1245 1163 1131 723 736 419 566 611 490 393 247 170 137 202 205 376 619 118 225 108 112 214 675 855 751 963 815
419 260 157 128 714 986 825 638 730 656 937 1158 848 978 1130 1004 977 798 619 540 547 761 636 718 571 489 155 144 343 311 388 558 521 124 124 79 93 304 631 601 791 889 936
406 284 165 240 246 310 607 702 1045 1095 1284 1204 1424 1185 1080 1023 1163 755 560 838 717 719 748 633 523 392 313 286 340 413 620 472 52 88 228 118 136 311 659 751 974 819 688
411 303 288 268 173 58 0 46 553 1125 1116 1106 851 662 777 517 545 1141 961 742 860 914 853 772 465 358 461 488 382 355 591 482 408 197 204 193 266 403 682 567 803 905 917
317 347 321 307 155 74 57 93 308 547 495 634 602 744 469 447 800 808 839 1045 1124 1030 1107 1078 1080 974 757 219 39 42 12 6 97 169 221 122 210 459 710 502 961 897 786
414 398 335 251 157 180 149 153 165 226 311 360 312 435 410 437 481 455 502 775 726 828 415 194 91 4 0 0 0 0 0 0 1 61 143 202 167 260 648 368 768 923 950
394 452 374 233 142 100 66 45 35 160 126 127 184 259 284 238 168 124 160 145 145 158 40 0 0 0 0 0 0 0 0 0 0 55 204 396 457 356 489 438 753 680 1025
347 380 299 245 99 31 38 17 11 29 1 40 129 54 33 85 24 56 159 132 111 101 44 8 0 0 0 0 0 0 0 0 42 180 204 394 561 676 679 739 820 819 999
371 229 147 229 133 54 2 0 0 4 24 26 82 11 1 1 2 33 162 178 172 146 84 67 0 0 0 54 226 324 329 409 471 437 323 350 453 655 1032 1198 985 769 985
170 284 162 219 43 42 11 1 6 16 32 7 40 0 0 0 0 0 0 36 125 169 219 172 146 62 112 398 369 362 287 349 565 550 543 581 395 436 640 1383 1133 693 237
82 124 139 178 57 41 22 27 32 21 6 0 0 0 0 0 0 0 0 0 0 71 155 162 291 446 380 466 442 459 342 492 544 506 506 518 405 442 346 612 923 600 293
81 66 39 24 3 9 4 6 6 2 0 0 0 0 0 0 0 0 0 0 0 73 257 336 319 396 385 534 650 477 452 224 154 101 87 236 421 538 441 520 860 1234 748
89 84 37 4 0 0 0 0 0 0 0 0 0 0 0 0 0 0 0 0 0 22 161 314 314 309 467 634 555 449 171 32 0 40 89 333 537 653 656 625 537 592 750
103 100 76 51 55 21 6 8 7 0 0 0 0 0 0 0 0 0 0 0 0 18 80 314 399 458 404 626 405 193 99 44 35 38 44 1 0 51 279 451 507 458 488
126 112 60 56 67 49 20 3 3 0 0 0 0 0 0 0 0 0 0 0 0 13 154 348 552 635 658 626 490 224 114 52 89 24 0 0 51 0 21 172 327 479 530
171 92 49 77 59 16 0 0 0 0 0 0 0 0 0 0 0 0 0 0 46 264 490 546 649 658 499 562 461 241 177 115 183 78 106 13 89 8 0 49 177 376 721
309 114 82 58 55 34 16 0 0 0 0 0 0 0 0 0 0 0 0 39 232 430 588 465 821 825 746 612 524 440 290 266 188 135 170 61 120 10 33 410 626 706 796
431 270 147 55 52 45 40 34 10 0 1 0 0 0 0 0 0 0 58 204 427 472 285 167 4 84 607 347 318 465 236 186 213 255 105 177 183 1 0 83 149 317 800
177 273 320 166 96 79 76 34 14 0 0 0 0 0 0 0 91 89 261 528 188 42 94 2 85 85 175 541 595 606 458 401 302 248 253 255 172 70 14 27 56 105 608
CIN
-46 -13 -5 0 -5 -1 0 -11 -8 -1 0 0 0 0 0 0 0 0 -1 -15 -14 -18 -3 -1 0 -1 -10 -10 -10 -16 -21 -20 -21 -24 -27 -11 -1 0 -2 0 -1 -1 0
-42 -13 -12 0 -6 -1 0 -4 -1 0 0 0 0 0 0 0 0 -1 0 -5 -16 -5 0 0 0 0 0 0 0 -7 -14 -13 -11 -1 -1 -4 0 0 -1 -3 -3 -2 -1
-33 -19 -10 -4 0 0 0 0 0 0 0 0 0 0 0 0 0 -1 -2 0 0 0 0 0 0 0 0 -1 0 -7 -19 -15 -1 -1 -4 -7 -1 0 -2 -3 -3 -2 -2
-29 -26 -15 -2 -2 0 0 0 0 0 0 0 0 -1 -4 -3 0 0 0 0 0 0 0 0 0 0 0 0 0 -7 -26 -28 -6 -5 -26 -35 -12 -2 -2 -6 -5 -7 -2
-21 -25 -16 -7 -2 0 0 0 0 0 0 0 0 0 -1 -1 0 0 0 0 0 0 0 -2 0 0 0 0 -7 -23 -44 -29 -12 -19 -26 -38 -48 -9 -7 -12 -6 -4 -2
-23 -14 -16 -12 -2 0 0 0 0 0 0 0 0 0 -2 -2 -3 -2 -3 -4 -5 0 0 0 0 -7 -19 -25 -32 -44 -54 -49 -37 -35 -50 -49 -34 -23 -7 -13 -8 -9 0
-18 -19 -15 -9 -6 0 0 0 0 0 0 -1 0 0 -1 -3 -4 -2 -2 0 -4 0 -1 -12 -12 -8 -30 -32 -30 -38 -40 -29 -18 -26 -42 -61 -47 -49 -5 -3 -7 -7 -2
-20 -17 -21 -8 -2 0 -1 0 0 0 -2 -5 -7 0 0 0 0 0 0 -1 -2 -4 -1 -1 -5 -11 -21 -32 -30 -40 -38 -34 -26 -60 -57 -91 -70 -41 -1 0 -1 0 -3
-13 -21 -18 -15 -3 0 0 0 0 0 0 0 -1 0 0 0 0 0 -7 -10 -13 0 0 -1 -19 -20 -27 -31 -29 -38 -39 -36 -44 -82 -80 -107 -94 -36 -1 0 0 0 0
-9 -15 -28 -11 -11 -10 -4 -3 0 0 0 0 0 -2 -3 0 0 0 -12 -1 -6 -11 -9 -18 -34 -41 -43 -43 -44 -46 -37 -43 -77 -101 -72 -102 -88 -62 -16 0 0 0 -1
-10 -24 -23 -19 -37 -57 0 -42 -2 0 0 -1 -4 -3 -1 -4 -2 -2 -1 -3 -2 -11 -18 -18 -37 -48 -39 -37 -52 -53 -43 -53 -60 -80 -81 -85 -78 -65 -33 -24 -1 -3 -2
-38 -30 -19 -19 -41 -55 -39 -9 -12 -5 -7 -8 -8 -6 -10 -8 -3 -3 -1 0 0 -1 -5 -15 -19 -28 -44 -67 -88 -101 -126 -123 -90 -85 -88 -96 -79 -67 -53 -53 -6 -2 -2
-36 -21 -19 -29 -46 -33 -35 -26 -28 -28 -15 -15 -22 -14 -13 -11 -13 -16 -20 -8 -19 -24 -52 -63 -86 -14 0 0 0 0 0 0 -17 -88 -87 -78 -90 -80 -57 -70 -29 -11 -3
-66 -25 -12 -21 -43 -41 -46 -50 -57 -36 -33 -45 -22 -18 -15 -16 -32 -53 -55 -62 -62 -73 -93 0 0 0 0 0 0 0 0 0 0 -86 -70 -71 -78 -78 -70 -75 -49 -22 -12
-76 -34 -12 -14 -40 -59 -49 -70 -70 -40 -36 -47 -33 -50 -60 -44 -69 -90 -61 -70 -74 -95 -105 -42 0 0 0 0 0 -25 0 0 -93 -71 -77 -72 -81 -80 -77 -65 -50 -30 -13
-61 -55 -30 -6 -30 -39 -76 -49 0 -22 -29 -59 -37 -114 -43 -46 -123 -99 -63 -68 -74 -98 -111 -105 0 0 0 -30 -58 -56 -54 -56 -51 -54 -71 -90 -84 -88 -77 -65 -48 -48 -38
-134 -63 -57 -8 -56 -47 -62 -25 -48 -35 -62 -75 -56 -1 0 0 0 0 0 -47 -81 -83 -71 -69 -67 -81 -67 -50 -52 -60 -66 -62 -49 -58 -59 -83 -93 -97 -99 -62 -51 -46 -57
-184 -133 -75 -23 -50 -26 -34 -35 -44 -54 -55 0 0 0 0 0 0 0 0 0 0 -77 -72 -71 -51 -39 -39 -42 -54 -54 -71 -63 -56 -82 -81 -85 -100 -109 -107 -72 -33 -36 -43
-177 -150 -96 -98 -16 -40 -55 -50 -67 -59 0 0 0 0 0 0 0 0 0 0 0 -79 -58 -52 -45 -50 -48 -39 -48 -54 -68 -83 -108 -127 -138 -106 -113 -124 -117 -102 -78 -49 -46
-159 -133 -71 -27 0 0 0 0 0 0 0 0 0 0 0 0 0 0 0 0 0 -97 -60 -56 -53 -60 -54 -50 -59 -54 -82 -108 0 -119 -106 -100 -112 -112 -123 -119 -113 -112 -91
-166 -151 -82 -54 -77 -118 -171 -199 -206 0 0 0 0 0 0 0 0 0 0 0 0 -147 -85 -55 -52 -56 -62 -57 -79 -76 -92 -112 -112 -104 -129 -33 -1 -166 -141 -144 -134 -136 -128
-166 -170 -168 -130 -133 -126 -144 -226 -181 0 0 0 0 0 0 0 0 0 0 0 0 -40 -88 -52 -35 -56 -60 -55 -54 -98 -82 -71 -83 -133 0 0 -115 0 -101 -118 -136 -132 -121
-158 -172 -188 -161 -151 -152 0 0 0 0 0 0 0 0 0 0 0 0 0 0 -130 -85 -57 -46 -52 -55 -56 -59 -60 -61 -58 -76 -99 -112 -81 -68 -89 -37 0 -131 -128 -145 -133
-149 -165 -172 -184 -163 -150 -142 0 0 0 0 0 0 0 0 0 0 0 0 -126 -95 -78 -53 -66 -47 -41 -56 -46 -55 -46 -56 -84 -84 -100 -110 -83 -73 -52 -55 -90 -101 -115 -119
-145 -156 -157 -174 -167 -160 -159 -131 -137 0 -182 0 0 0 0 0 0 -14 -120 -114 -101 -77 -97 -117 -232 -156 -48 -101 -74 -51 -75 -90 -111 -38 -78 -60 -57 -4 0 -129 -129 -127 -106
-210 -174 -172 -159 -166 -174 -155 -143 -142 -8 0 0 0 0 0 0 -75 -112 -118 -105 -135 -215 -167 -262 -157 -156 -109 -63 -56 -59 -50 -30 -25 -21 -27 -31 -38 -76 -158 -188 -161 -174 -130
Wind_Speed
22 25 25 13 18 24 29 33 35 36 34 35 36 36 36 35 35 34 33 31 31 31 28 26 26 24 24 22 19 16 13 11 10 11 13 14 15 18 21 23 23 24 22
27 26 28 3 11 22 25 30 32 35 33 34 35 34 34 33 34 33 32 30 30 29 25 24 24 22 20 20 19 17 15 12 12 11 13 15 16 18 20 22 22 23 24
27 28 29 20 16 18 22 27 29 32 32 32 33 33 33 33 32 32 30 29 28 27 24 20 19 19 18 18 18 17 15 13 12 12 11 13 15 18 20 20 22 22 22
27 28 28 17 14 14 16 22 25 26 27 27 30 32 31 32 31 30 29 27 26 24 24 23 19 17 17 17 17 16 15 14 14 13 12 14 14 18 20 20 21 22 21
17 28 26 22 13 13 14 16 17 20 22 24 27 29 30 30 29 28 27 25 24 24 23 22 19 17 16 16 17 16 16 15 14 14 14 14 15 17 18 18 19 20 20
15 24 26 23 18 14 13 14 14 17 19 22 24 27 27 28 27 26 25 25 24 24 22 20 19 18 17 16 17 17 15 14 13 13 13 14 15 15 16 17 18 18 19
12 15 21 22 19 14 11 10 10 14 16 18 20 24 25 26 26 25 25 25 24 23 23 23 21 18 17 17 16 16 14 13 12 12 14 14 15 15 15 15 16 16 16
14 9 10 14 17 15 8 6 6 9 12 17 18 21 26 25 26 25 25 25 25 24 23 20 19 17 17 17 16 15 14 12 12 11 14 14 15 15 15 14 14 14 14
10 11 6 1 14 9 10 5 3 2 5 10 18 20 23 24 24 25 25 25 25 23 22 19 17 16 16 15 14 13 12 12 12 12 13 14 14 14 14 13 12 12 12
7 6 5 6 2 9 13 9 6 8 3 1 2 8 10 25 21 25 25 24 24 22 19 17 15 14 15 13 13 12 12 12 11 11 11 12 13 13 12 12 11 11 11
8 8 7 5 4 3 7 9 12 12 8 7 4 9 4 5 5 19 24 23 21 19 17 15 14 13 13 13 12 12 13 12 10 9 10 10 11 11 11 11 11 11 11
16 11 6 3 4 1 2 4 16 11 11 8 7 4 4 6 10 11 15 18 17 16 15 15 14 13 13 13 12 12 13 13 12 10 9 9 9 9 9 11 10 11 11
16 11 5 2 2 3 4 2 8 11 8 8 8 6 5 7 10 11 14 15 16 16 16 16 16 16 16 15 13 13 13 12 11 11 11 9 8 8 9 10 10 9 9
14 13 6 1 7 8 9 4 6 9 8 9 8 7 7 8 10 12 14 16 17 17 17 17 16 17 17 17 17 18 16 14 12 12 13 11 9 7 8 8 8 6 6
13 12 11 4 9 13 12 8 7 12 17 9 9 9 8 9 10 11 14 15 17 17 17 16 16 16 17 18 19 17 13 12 11 12 11 12 6 8 8 8 4 3 4
13 13 13 8 12 13 14 12 7 12 13 11 14 10 8 9 10 10 12 14 15 17 17 16 16 16 15 16 19 22 16 5 7 4 4 8 9 3 7 7 9 9 8
13 13 15 10 10 10 13 13 8 12 11 17 18 12 11 9 11 12 14 15 16 17 17 17 17 16 15 20 19 14 11 8 2 5 3 5 1 2 1 8 10 8 7
14 13 13 11 6 13 12 10 8 15 17 16 18 16 12 14 15 15 16 17 18 18 19 18 21 20 20 19 15 21 22 21 17 6 3 2 3 4 5 3 7 6 6
16 15 13 9 4 13 16 17 14 15 15 20 20 18 17 17 17 18 19 19 19 20 20 21 20 3 24 24 26 25 27 15 16 22 23 18 10 9 8 10 5 3 1
16 15 14 9 3 9 13 13 13 17 17 18 24 21 22 20 20 21 21 21 21 22 23 24 25 25 20 19 27 26 12 19 20 26 23 21 19 14 15 18 18 11 2
18 19 19 19 7 2 17 16 17 21 19 21 23 25 26 26 24 23 23 23 24 25 25 25 23 24 24 22 22 27 22 20 20 26 24 23 25 19 12 11 14 18 11
19 20 20 21 14 21 25 21 20 21 21 22 23 26 29 29 27 25 25 25 26 27 26 24 21 20 20 21 22 23 24 23 23 24 22 23 28 26 25 18 4 2 3
19 20 19 20 21 24 21 15 16 17 20 23 30 31 32 30 28 26 25 26 27 25 25 19 16 17 21 21 21 22 22 21 29 20 23 24 30 28 29 29 11 4 3
20 19 18 16 16 18 14 20 19 22 22 26 27 30 30 29 27 27 27 27 27 25 10 18 18 18 18 20 22 19 19 19 22 21 21 23 29 27 29 27 25 21 8
20 21 22 20 17 16 6 20 22 22 25 26 26 26 26 26 27 27 26 26 24 14 18 18 21 19 18 19 21 21 13 14 17 16 21 26 27 24 25 25 25 22 20
22 23 24 21 19 24 21 21 25 21 22 25 26 25 25 23 23 23 21 9 12 16 15 17 20 15 14 15 14 14 15 16 17 17 17 19 19 20 21 25 26 26 23
Wind_Direction
159 152 154 180 72 87 96 104 107 108 106 107 109 109 109 110 111 110 110 104 106 122 139 148 146 153 154 162 179 193 199 204 212 207 198 188 178 163 145 123 108 115 90
125 154 141 68 71 87 92 101 104 109 108 108 110 107 109 109 112 112 110 107 110 125 144 150 154 159 166 170 179 193 203 212 216 231 189 182 178 172 149 132 120 125 111
121 146 132 85 81 89 91 99 102 108 107 106 109 108 111 112 113 114 109 109 112 122 139 166 167 167 171 173 174 187 198 207 209 192 228 190 179 171 153 146 128 125 110
122 150 117 84 83 89 89 96 99 100 99 100 105 110 111 116 119 117 116 114 117 126 130 137 170 178 180 178 178 185 195 198 197 189 191 183 187 164 156 142 130 125 117
86 155 112 98 88 90 91 94 94 93 93 95 102 110 114 118 119 119 122 122 124 127 135 140 153 175 178 178 176 178 179 185 192 188 185 173 174 168 161 149 134 129 124
84 119 119 106 96 94 93 96 95 93 93 95 99 105 110 123 118 118 120 122 120 130 138 147 155 164 172 176 172 172 180 190 197 199 202 182 173 176 165 137 131 129 134
77 92 109 108 100 97 97 96 95 92 92 91 94 103 109 122 127 127 123 125 129 136 133 127 134 158 170 169 171 177 182 188 192 191 178 182 167 174 138 121 130 123 124
84 76 84 97 102 100 103 108 101 91 89 92 94 99 127 118 129 132 136 135 132 127 138 147 150 165 166 163 164 171 174 181 177 168 136 142 151 159 137 129 123 126 120
63 79 63 260 102 101 97 106 180 167 84 83 98 102 112 121 126 134 143 133 128 136 142 151 158 168 167 175 180 178 188 184 164 149 137 129 130 139 142 131 125 121 125
48 50 58 75 66 91 94 86 232 229 240 287 336 58 61 140 104 125 132 139 131 141 164 172 172 177 167 186 185 178 191 174 171 165 157 137 134 130 129 136 126 128 140
48 61 74 75 86 88 83 89 231 232 246 254 290 63 353 334 273 165 153 148 149 160 177 189 185 194 195 196 201 205 214 199 164 167 164 148 140 141 142 142 147 147 134
99 82 71 68 90 139 277 266 228 239 248 260 264 310 334 266 248 240 219 193 188 196 198 206 215 224 232 220 217 222 217 226 212 193 184 173 149 149 149 155 149 153 156
93 82 70 92 244 245 253 278 257 248 260 267 271 279 297 274 263 255 240 233 226 214 211 222 235 244 249 239 228 226 228 221 216 211 203 190 183 172 169 168 165 149 156
94 98 66 264 252 251 257 276 282 264 274 266 274 271 268 283 276 264 254 240 226 212 219 222 226 237 239 244 246 251 243 231 225 220 219 208 200 181 178 176 172 151 141
90 91 114 114 251 247 252 267 288 266 251 275 265 263 277 284 277 284 268 261 238 230 215 218 224 231 242 249 255 249 232 230 226 223 219 220 203 199 193 191 162 138 155
73 88 102 113 250 249 252 263 301 271 253 255 245 260 277 289 286 302 296 297 284 266 248 238 237 242 236 245 261 275 250 213 215 199 189 221 217 189 199 201 199 191 186
78 83 106 100 258 256 256 259 282 262 248 239 236 257 265 284 285 287 292 296 294 285 273 256 264 255 243 266 259 245 238 41 76 38 174 202 141 58 81 202 214 214 211
79 82 98 95 272 250 253 260 267 246 240 243 236 246 262 262 259 275 277 289 281 279 266 260 278 271 273 266 252 271 274 270 252 46 71 145 132 75 103 78 210 201 206
95 89 97 88 84 251 247 251 259 255 258 244 240 245 255 262 274 268 269 274 273 282 293 291 265 116 297 288 297 290 310 267 27 360 350 8 39 41 37 27 42 55 93
104 82 92 85 52 259 255 263 266 254 257 257 243 250 250 261 265 264 275 271 282 295 297 310 291 299 1 342 333 345 34 14 16 355 4 9 11 22 10 357 357 16 120
118 114 110 115 90 74 249 254 251 243 253 250 248 246 240 246 250 268 270 267 277 291 298 307 336 332 338 2 7 350 2 3 1 344 1 9 4 19 34 21 5 354 9
132 131 112 119 96 169 222 244 252 256 258 253 251 249 239 233 243 257 259 259 264 293 303 320 338 347 351 357 359 360 354 354 345 352 4 5 347 355 350 7 55 116 59
140 138 128 127 128 165 219 260 261 258 252 252 241 243 233 237 234 242 247 257 280 303 310 337 356 356 345 353 0 359 355 354 336 358 353 358 338 346 339 332 23 77 88
148 141 134 117 111 120 249 223 243 236 243 212 212 211 224 235 231 245 255 267 279 300 14 351 354 354 357 353 352 359 358 357 357 0 5 3 318 345 340 348 352 0 84
144 145 146 136 115 113 3 233 201 222 219 213 209 215 226 234 242 247 251 258 265 2 346 348 344 349 352 352 350 350 38 26 10 10 2 353 345 8 8 9 5 10 16
146 147 147 138 124 162 142 165 190 212 216 217 221 230 229 238 244 243 227 323 27 11 12 3 356 7 7 9 23 23 19 15 12 16 13 14 17 18 15 5 0 360 6